• In Österreich
  • Länderverzeichnis
  • Für 7 Tage
  • Wassertemperatur
  • Satellitenkarten
  • Wetterkarte
  • News
  • Widgets
  • user-avatar
    Anmelden

    Stündliche Wetter Pinsk

    Heute, 20 Oktober, Samstag

    Zeit Temperatur Niederschläge Wind Luftdruck Luftfeuchtigkeit
    00:00 +9°C° 0 mm 2 m/S 753 mmHg 92%
    01:00 +9°C° 0 mm 2 m/S 753 mmHg 94%
    02:00 +9°C° 0 mm 2 m/S 753 mmHg 95%
    03:00 +8°C° 0 mm 2 m/S 753 mmHg 96%
    04:00 +8°C° 0 mm 2 m/S 753 mmHg 96%
    05:00 +8°C° 0 mm 2 m/S 753 mmHg 96%
    06:00 +8°C° 0 mm 2 m/S 754 mmHg 95%
    07:00 +8°C° 0 mm 2 m/S 754 mmHg 94%
    08:00 +8°C° 0 mm 2 m/S 754 mmHg 93%
    09:00 +9°C° 0 mm 2 m/S 754 mmHg 86%
    10:00 +12°C° 0 mm 2 m/S 754 mmHg 80%
    11:00 +13°C° 0 mm 2 m/S 754 mmHg 73%
    12:00 +13°C° 0 mm 2 m/S 754 mmHg 71%
    13:00 +13°C° 0 mm 2 m/S 754 mmHg 68%
    14:00 +14°C° 0 mm 2 m/S 754 mmHg 66%
    15:00 +13°C° 0 mm 2 m/S 754 mmHg 68%
    16:00 +12°C° 0 mm 2 m/S 754 mmHg 69%
    17:00 +12°C° 0 mm 1 m/S 754 mmHg 70%
    18:00 +11°C° 0 mm 1 m/S 754 mmHg 73%
    19:00 +10°C° 0 mm 1 m/S 754 mmHg 76%
    20:00 +9°C° 0 mm 1 m/S 754 mmHg 80%
    21:00 +8°C° 0 mm 1 m/S 754 mmHg 82%
    22:00 +8°C° 0 mm 1 m/S 754 mmHg 84%
    23:00 +6°C° 0 mm 2 m/S 754 mmHg 87%

    Morgen, 21 Oktober, Sonntag

    Zeit Temperatur Niederschläge Wind Luftdruck Luftfeuchtigkeit
    00:00 +6°C° 0 mm 2 m/S 754 mmHg 88%
    01:00 +5°C° 0 mm 2 m/S 754 mmHg 89%
    02:00 +5°C° 0 mm 2 m/S 754 mmHg 91%
    03:00 +4°C° 0 mm 2 m/S 754 mmHg 91%
    04:00 +4°C° 0 mm 2 m/S 755 mmHg 91%
    05:00 +4°C° 0 mm 2 m/S 755 mmHg 91%
    06:00 +4°C° 0 mm 2 m/S 755 mmHg 89%
    07:00 +5°C° 0 mm 2 m/S 755 mmHg 87%
    08:00 +5°C° 0 mm 2 m/S 756 mmHg 85%
    09:00 +7°C° 0 mm 2 m/S 756 mmHg 77%
    10:00 +8°C° 0 mm 2 m/S 756 mmHg 69%
    11:00 +10°C° 0 mm 2 m/S 756 mmHg 60%
    12:00 +11°C° 0 mm 3 m/S 756 mmHg 57%
    13:00 +12°C° 0 mm 3 m/S 756 mmHg 54%
    14:00 +12°C° 0 mm 3 m/S 756 mmHg 51%
    15:00 +12°C° 0 mm 2 m/S 756 mmHg 55%
    16:00 +10°C° 0 mm 2 m/S 756 mmHg 59%
    17:00 +9°C° 0 mm 2 m/S 756 mmHg 63%
    18:00 +8°C° 0 mm 2 m/S 757 mmHg 67%
    19:00 +7°C° 0 mm 2 m/S 757 mmHg 70%
    20:00 +6°C° 0 mm 2 m/S 757 mmHg 73%
    21:00 +6°C° 0 mm 2 m/S 757 mmHg 75%
    22:00 +6°C° 0 mm 1 m/S 757 mmHg 77%
    23:00 +6°C° 0 mm 1 m/S 757 mmHg 79%

    übermorgen, 22 Oktober, Montag

    Zeit Temperatur Niederschläge Wind Luftdruck Luftfeuchtigkeit
    00:00 +6°C° 0 mm 1 m/S 757 mmHg 81%
    01:00 +5°C° 0 mm 1 m/S 757 mmHg 82%
    02:00 +5°C° 0 mm 1 m/S 757 mmHg 84%
    03:00 +5°C° 0 mm 1 m/S 757 mmHg 84%
    04:00 +4°C° 0 mm 1 m/S 757 mmHg 85%
    05:00 +4°C° 0 mm 1 m/S 757 mmHg 86%
    06:00 +3°C° 0 mm 0 m/S 757 mmHg 85%
    07:00 +4°C° 0 mm 0 m/S 757 mmHg 83%
    08:00 +4°C° 0 mm 0 m/S 757 mmHg 82%
    09:00 +6°C° 0 mm 0 m/S 757 mmHg 73%
    10:00 +8°C° 0 mm 0 m/S 756 mmHg 65%
    11:00 +10°C° 0 mm 0 m/S 756 mmHg 57%
    12:00 +10°C° 0 mm 0 m/S 756 mmHg 54%
    13:00 +12°C° 0 mm 1 m/S 755 mmHg 51%
    14:00 +13°C° 0 mm 1 m/S 755 mmHg 49%
    15:00 +11°C° 0 mm 1 m/S 754 mmHg 54%
    16:00 +10°C° 0 mm 1 m/S 754 mmHg 58%
    17:00 +9°C° 0 mm 1 m/S 753 mmHg 63%
    18:00 +8°C° 0 mm 1 m/S 753 mmHg 67%
    19:00 +8°C° 0 mm 1 m/S 753 mmHg 71%
    20:00 +7°C° 0 mm 1 m/S 753 mmHg 75%
    21:00 +7°C° 0 mm 1 m/S 752 mmHg 77%
    22:00 +5°C° 0 mm 2 m/S 752 mmHg 79%
    23:00 +5°C° 0 mm 2 m/S 752 mmHg 82%

    23 Oktober, Dienstag

    Zeit Temperatur Niederschläge Wind Luftdruck Luftfeuchtigkeit
    00:00 +5°C° 0 mm 2 m/S 752 mmHg 84%
    01:00 +4°C° 0 mm 2 m/S 751 mmHg 86%
    02:00 +4°C° 0 mm 2 m/S 751 mmHg 87%
    03:00 +3°C° 0 mm 3 m/S 751 mmHg 88%
    04:00 +3°C° 0 mm 3 m/S 750 mmHg 89%
    05:00 +3°C° 0 mm 3 m/S 750 mmHg 90%
    06:00 +3°C° 0.1 mm 3 m/S 750 mmHg 90%
    07:00 +3°C° 0.1 mm 3 m/S 750 mmHg 90%
    08:00 +4°C° 0.1 mm 3 m/S 750 mmHg 89%
    09:00 +5°C° 0.1 mm 3 m/S 749 mmHg 83%
    10:00 +6°C° 0.1 mm 4 m/S 749 mmHg 76%
    11:00 +7°C° 0.1 mm 4 m/S 749 mmHg 70%
    12:00 +8°C° 0 mm 4 m/S 749 mmHg 63%
    13:00 +10°C° 0 mm 4 m/S 748 mmHg 56%
    14:00 +10°C° 0 mm 4 m/S 748 mmHg 49%
    15:00 +8°C° 0 mm 4 m/S 747 mmHg 52%
    16:00 +8°C° 0 mm 3 m/S 747 mmHg 55%
    17:00 +7°C° 0 mm 3 m/S 746 mmHg 59%
    18:00 +7°C° 0 mm 3 m/S 745 mmHg 59%
    19:00 +6°C° 0 mm 4 m/S 744 mmHg 60%
    20:00 +5°C° 0 mm 4 m/S 744 mmHg 61%
    21:00 +5°C° 0.1 mm 5 m/S 742 mmHg 63%
    22:00 +4°C° 0.1 mm 6 m/S 741 mmHg 64%
    23:00 +4°C° 0.1 mm 7 m/S 740 mmHg 66%

    24 Oktober, Mittwoch

    Zeit Temperatur Niederschläge Wind Luftdruck Luftfeuchtigkeit
    00:00 +4°C° 0.6 mm 8 m/S 738 mmHg 69%
    01:00 +4°C° 0.6 mm 8 m/S 737 mmHg 72%
    02:00 +3°C° 0.6 mm 9 m/S 735 mmHg 75%
    03:00 +3°C° 1 mm 9 m/S 733 mmHg 77%
    04:00 +3°C° 1 mm 9 m/S 732 mmHg 79%
    05:00 +3°C° 1 mm 9 m/S 730 mmHg 81%
    06:00 +5°C° 1 mm 8 m/S 729 mmHg 83%
    07:00 +6°C° 1 mm 8 m/S 729 mmHg 85%
    08:00 +6°C° 1 mm 7 m/S 728 mmHg 87%
    09:00 +6°C° 1.3 mm 8 m/S 728 mmHg 81%
    10:00 +6°C° 1.3 mm 8 m/S 729 mmHg 76%
    11:00 +5°C° 1.3 mm 9 m/S 729 mmHg 71%
    12:00 +5°C° 0.1 mm 9 m/S 730 mmHg 70%
    13:00 +5°C° 0.1 mm 9 m/S 730 mmHg 69%
    14:00 +5°C° 0.1 mm 8 m/S 731 mmHg 68%
    15:00 +4°C° 0.6 mm 8 m/S 732 mmHg 69%
    16:00 +4°C° 0.6 mm 8 m/S 732 mmHg 70%
    17:00 +4°C° 0.6 mm 7 m/S 733 mmHg 71%
    18:00 +3°C° 0.1 mm 7 m/S 733 mmHg 70%
    19:00 +3°C° 0.1 mm 7 m/S 734 mmHg 70%
    20:00 +3°C° 0.1 mm 7 m/S 734 mmHg 70%
    21:00 +3°C° 0.1 mm 7 m/S 735 mmHg 70%
    22:00 +3°C° 0.1 mm 7 m/S 735 mmHg 70%
    23:00 +3°C° 0.1 mm 7 m/S 735 mmHg 70%

    25 Oktober, Donnerstag

    Zeit Temperatur Niederschläge Wind Luftdruck Luftfeuchtigkeit
    00:00 +2°C° 0.1 mm 7 m/S 736 mmHg 71%
    01:00 +2°C° 0.1 mm 7 m/S 736 mmHg 72%
    02:00 +2°C° 0.1 mm 7 m/S 736 mmHg 73%
    03:00 +2°C° 0 mm 7 m/S 736 mmHg 74%
    04:00 +2°C° 0 mm 7 m/S 737 mmHg 75%
    05:00 +2°C° 0 mm 7 m/S 737 mmHg 76%
    06:00 +2°C° 0 mm 7 m/S 738 mmHg 76%
    07:00 +2°C° 0 mm 7 m/S 738 mmHg 76%
    08:00 +2°C° 0 mm 7 m/S 739 mmHg 76%
    09:00 +2°C° 0 mm 7 m/S 739 mmHg 72%
    10:00 +3°C° 0 mm 7 m/S 739 mmHg 68%
    11:00 +4°C° 0 mm 7 m/S 740 mmHg 64%
    12:00 +5°C° 0 mm 7 m/S 740 mmHg 61%
    13:00 +5°C° 0 mm 7 m/S 740 mmHg 58%
    14:00 +5°C° 0 mm 6 m/S 740 mmHg 55%
    15:00 +6°C° 0 mm 5 m/S 740 mmHg 58%
    16:00 +5°C° 0 mm 4 m/S 740 mmHg 62%
    17:00 +4°C° 0 mm 3 m/S 740 mmHg 65%
    18:00 +4°C° 0 mm 3 m/S 740 mmHg 67%
    19:00 +3°C° 0 mm 3 m/S 740 mmHg 68%
    20:00 +3°C° 0 mm 3 m/S 740 mmHg 69%
    21:00 +3°C° 0.1 mm 3 m/S 740 mmHg 73%
    22:00 +3°C° 0.1 mm 3 m/S 740 mmHg 76%
    23:00 +3°C° 0.1 mm 3 m/S 739 mmHg 80%
    Mehr zeigen